Вернуться в каталог

ICEYE-X56

АктивенНаукаSSO
NORAD 64574·PAYLOAD·🇫🇮 Finland

Запущен Jun 23, 2025 с Vandenberg Space Force Base

Loading…

Ближайшие Пролёты (ближайшие 24 часа)

TLE

СвежийSource: Space-Track

Эпоха: Sep 14, 2026, 22:28 UTC

1 64574U 25135AY  26257.93638146  .00002753  00000-0  25027-3 0  9990
2 64574  97.7820  12.2534 0003019  61.1734 298.9790 14.96055544 67340

Отслеживайте ICEYE-X56 в реальном времени с AllMySat

Download on the App Store